This is the latest recevied weather packets stored in our database for station/object VE6HFD-WX. If no packets are shown the sender has not sent any weather packets the latest 10 day(s).
| Time | Temp. | Humidity | Pressure | Rain* | Wind** | Luminosity | Snow |
|---|---|---|---|---|---|---|---|
| 1778083117 | 8.89° C | 42% | 1013.8 hPa | 0 mm | - | - | - |
| 1778082817 | 8.89° C | 46% | 1013.8 hPa | 0 mm | - | - | - |
| 1778082487 | 8.33° C | 48% | 1013.8 hPa | 0 mm | - | - | - |
| 1778082187 | 8.33° C | 49% | 1014 hPa | 0 mm | - | - | - |
| 1778081887 | 7.78° C | 50% | 1014 hPa | 0 mm | - | - | - |
| 1778081587 | 7.22° C | 51% | 1014.2 hPa | 0 mm | - | - | - |
| 1778081287 | 7.22° C | 53% | 1014.2 hPa | 0 mm | - | - | - |
| 1778080957 | 6.67° C | 56% | 1014.3 hPa | 0 mm | - | - | - |
| 1778080657 | 6.67° C | 58% | 1014.4 hPa | 0 mm | - | - | - |
| 1778080357 | 6.11° C | 58% | 1014.5 hPa | 0 mm | - | - | - |
| 1778080057 | 5.56° C | 59% | 1014.6 hPa | 0 mm | - | - | - |
| 1778079727 | 5° C | 62% | 1014.6 hPa | 0 mm | - | - | - |
| 1778079397 | 4.44° C | 65% | 1014.7 hPa | 0 mm | - | - | - |
| 1778079097 | 4.44° C | 65% | 1014.9 hPa | 0 mm | - | - | - |
| 1778078767 | 3.89° C | 68% | 1014.9 hPa | 0 mm | - | - | - |
| 1778078437 | 3.33° C | 69% | 1014.9 hPa | 0 mm | - | - | - |
| 1778078107 | 3.33° C | 69% | 1015.1 hPa | 0 mm | - | - | - |
| 1778077807 | 2.78° C | 69% | 1015.2 hPa | 0 mm | - | - | - |
| 1778077477 | 2.78° C | 70% | 1015.1 hPa | 0 mm | - | - | - |
| 1778077147 | 2.22° C | 72% | 1015.2 hPa | 0 mm | - | - | - |
| 1778076847 | 2.22° C | 72% | 1015.3 hPa | 0 mm | - | - | - |
| 1778076547 | 1.67° C | 74% | 1015.4 hPa | 0 mm | - | - | - |
| 1778076217 | 1.11° C | 76% | 1015.4 hPa | 0 mm | - | - | - |
| 1778075917 | 0.56° C | 77% | 1015.5 hPa | 0 mm | - | - | - |
| 1778075587 | 0.56° C | 78% | 1015.5 hPa | 0 mm | - | - | - |
* Rain latest hour (hover to see other rain measurements)
** Current wind speed in m/s (hover to see current wind gust speed)